Temp
89 88 88 88 88 90 90 89 89 90 90 90 90 92 93 93 91 91 90 88 87 86 87 87 86 87 87 87 87 87 88 88 89 89 89 89 89 89 89 91 90 89 92 92 91 91 91 91 91 92 92 91 91 90 89 89 89 90 90 89 90 90 89
87 87 88 89 89 89 91 89 89 91 91 91 90 91 93 93 91 91 89 89 88 87 88 87 87 87 87 87 88 87 87 88 88 88 90 88 88 88 90 90 90 89 88 90 91 91 91 91 91 90 90 90 91 90 91 90 89 89 91 89 90 89 90
83 83 85 88 89 90 90 91 89 91 91 92 93 92 92 90 91 90 89 89 88 88 89 88 87 88 88 88 88 87 88 89 89 89 89 91 90 93 91 90 90 92 92 92 91 92 92 91 90 90 90 91 93 90 90 90 89 90 90 89 89 91 88
81 83 84 86 88 90 90 90 90 92 93 92 93 93 93 90 92 91 91 91 89 89 88 90 90 90 89 88 88 88 88 88 89 91 92 92 92 92 91 91 90 92 92 92 94 93 95 91 91 90 89 90 90 91 91 90 92 91 91 89 90 91 89
84 85 84 84 84 85 88 90 89 91 92 94 94 92 93 93 93 93 93 94 95 91 92 92 94 92 90 90 91 91 90 90 89 91 92 92 91 91 90 92 93 92 92 93 92 90 89 90 91 90 90 89 90 90 90 90 91 90 90 89 89 90 91
84 84 84 83 82 86 87 89 92 92 92 93 94 93 94 95 95 95 95 94 94 95 93 91 92 91 90 92 92 92 91 90 89 89 91 90 90 92 92 91 93 93 94 92 94 93 92 92 92 92 92 93 92 93 93 92 92 92 90 89 89 90 92
83 83 82 83 84 85 86 86 88 91 94 94 93 94 96 96 96 96 96 96 95 93 94 93 93 93 91 92 91 90 90 91 90 90 92 93 91 91 92 92 92 94 94 93 93 93 93 92 92 91 92 93 92 93 91 90 90 91 90 89 88 89 88
82 82 82 83 85 86 87 88 90 94 94 94 92 91 93 96 96 96 95 92 92 92 93 95 94 92 91 91 91 91 91 91 92 91 92 93 93 92 93 93 92 92 92 93 93 93 94 92 94 93 92 92 91 91 92 90 89 92 92 90 88 89 93
83 83 81 84 85 87 87 87 89 92 91 92 91 91 93 93 94 93 95 93 91 90 89 93 93 93 91 91 91 90 92 92 92 92 92 93 94 95 96 95 93 93 92 94 95 94 94 94 95 91 91 91 90 89 90 89 91 91 91 90 88 89 91
81 80 81 83 84 85 84 84 87 88 87 87 89 89 91 92 92 93 91 91 91 89 89 93 91 90 89 89 91 92 92 91 92 94 94 94 94 95 96 97 96 94 94 95 96 95 93 94 94 92 90 90 90 89 89 89 91 91 91 90 90 90 89
79 80 80 80 79 78 78 78 80 81 83 84 85 87 89 89 90 91 88 89 89 89 89 90 90 89 88 88 88 89 91 92 93 93 93 94 96 96 96 97 98 96 95 96 96 96 95 92 93 91 90 93 91 90 89 91 91 90 92 92 92 91 91
76 78 78 79 79 79 77 77 78 78 79 81 83 84 85 86 86 87 87 87 88 88 88 88 89 88 87 88 88 88 89 90 92 93 93 94 96 97 97 97 96 97 97 97 95 95 96 94 94 93 91 91 92 92 91 90 91 90 91 94 94 93 93
76 76 76 78 78 79 79 78 79 79 79 81 80 80 80 83 85 86 86 86 87 88 87 87 87 87 86 88 88 87 88 88 90 91 94 94 94 96 96 97 97 97 97 96 96 96 96 96 94 93 93 92 93 93 92 91 92 90 90 92 93 92 92
75 77 77 77 78 78 79 79 80 80 79 80 81 81 81 82 82 83 84 85 86 87 87 87 86 86 86 87 88 87 87 87 89 90 91 93 92 93 95 96 96 95 96 96 95 96 96 97 97 96 95 94 94 94 94 92 92 91 90 91 93 93 93
74 76 76 77 77 78 79 79 79 79 81 80 80 80 81 81 80 81 82 83 84 86 86 87 86 85 86 86 86 86 87 88 89 89 89 90 90 90 91 93 93 93 94 93 94 97 97 97 97 96 95 95 94 94 95 96 94 94 92 90 90 92 93
74 75 75 76 76 77 77 78 78 78 79 79 80 81 81 81 81 81 80 80 82 83 84 84 84 84 85 85 85 86 87 87 87 87 87 87 88 88 89 91 92 94 93 92 93 93 93 93 94 95 95 93 93 93 95 95 96 91 84 84 91 92 94
76 75 75 75 74 74 75 75 76 76 76 77 78 79 80 80 81 82 83 82 82 81 83 84 83 83 84 84 85 85 85 85 86 85 84 85 86 86 86 87 89 89 89 90 90 90 90 90 91 93 94 95 94 93 95 96 86 72 74 75 76 87 91
75 75 74 73 73 72 73 73 72 72 73 72 71 72 73 74 77 79 79 80 81 81 81 82 82 82 82 82 84 84 84 85 85 84 84 84 85 85 85 85 85 85 85 87 89 88 90 90 90 90 93 94 95 95 95 90 67 65 65 69 71 76 87
76 76 75 73 72 71 72 72 73 73 73 73 74 74 74 77 77 78 79 79 79 79 79 80 81 81 80 80 80 81 82 82 83 83 83 82 83 84 84 84 83 84 84 85 86 88 87 87 89 89 90 92 90 92 92 87 67 63 65 65 66 68 76
78 77 75 74 73 72 72 72 73 73 73 73 76 80 79 78 78 78 78 78 78 77 78 79 80 80 80 79 78 77 77 78 78 78 78 78 80 82 82 80 78 79 79 81 83 84 86 89 87 88 88 89 89 87 85 79 66 61 61 64 63 66 71
78 75 73 72 70 71 71 71 72 72 73 78 79 80 81 79 78 75 72 72 72 74 75 76 76 77 78 79 80 79 79 78 78 78 78 77 77 77 75 74 74 74 73 72 75 81 83 86 87 87 87 89 88 87 84 77 59 60 60 61 62 62 70
78 76 73 73 71 70 70 71 72 72 73 75 77 78 78 79 78 76 73 74 73 72 73 73 74 75 76 77 77 78 79 79 78 77 77 77 76 74 72 74 75 73 72 71 73 78 82 83 85 85 86 86 86 85 82 77 57 58 59 58 62 63 81
78 76 75 73 74 73 74 72 71 72 73 74 75 75 75 78 80 76 74 73 72 71 71 71 71 72 74 73 74 75 76 76 76 75 76 75 74 73 72 72 73 72 73 73 75 76 77 80 81 82 82 82 81 81 79 77 62 56 56 57 57 70 86
79 77 76 75 75 75 75 75 76 75 76 73 72 73 74 76 77 78 75 74 74 73 71 70 70 70 71 71 73 72 73 73 73 73 73 72 71 71 72 72 72 72 73 73 73 74 75 76 77 78 79 78 78 81 79 77 64 54 55 56 55 67 82
78 76 76 76 76 76 76 76 77 77 76 75 72 73 75 75 75 76 76 75 75 75 73 72 73 72 71 72 74 75 75 74 74 73 72 71 71 72 72 73 73 72 71 70 71 71 72 73 74 73 74 76 78 76 78 77 69 56 55 54 55 67 82
75 75 76 77 79 79 77 77 76 77 76 74 72 74 74 75 75 73 73 73 76 76 74 73 73 74 75 75 74 74 73 73 72 72 71 70 70 72 71 71 70 69 69 69 69 69 69 70 71 71 71 74 75 75 76 73 71 63 53 53 55 57 75
76 77 77 79 78 76 78 78 79 79 79 75 75 77 77 76 74 72 71 72 73 73 73 74 75 74 73 73 74 74 74 75 74 73 74 74 72 72 70 69 68 67 67 67 67 67 67 68 69 70 69 70 70 70 70 71 70 64 53 53 54 55 65
74 78 79 77 75 76 77 78 76 76 78 78 79 79 78 75 72 71 71 71 71 73 76 76 75 75 74 73 73 75 76 75 75 76 76 75 75 73 72 71 71 70 70 69 68 67 67 68 68 68 68 69 68 68 67 68 68 66 58 53 52 53 55
67 70 72 73 75 76 76 75 76 76 76 78 80 79 77 76 73 73 73 71 72 76 76 76 75 75 75 74 74 74 75 74 73 73 77 75 75 74 73 73 72 72 72 71 71 69 68 68 69 69 69 68 69 69 69 69 68 64 65 56 52 52 54
71 70 71 74 76 77 78 76 76 75 76 77 76 76 76 75 73 73 72 71 75 77 77 76 75 74 74 74 74 74 76 76 75 74 74 75 74 73 73 73 73 73 73 73 72 70 68 68 70 71 70 68 68 69 70 70 69 66 65 63 55 53 52
71 71 71 70 72 73 75 75 73 74 75 75 74 75 74 74 72 72 71 73 75 76 76 76 76 74 74 74 75 75 76 74 73 73 74 74 74 72 72 72 73 73 74 73 72 70 69 69 72 69 68 68 68 68 69 70 71 71 68 66 63 56 54
70 70 69 68 69 71 73 73 73 73 72 72 74 74 75 74 74 71 72 75 75 76 76 76 74 73 73 75 76 76 76 76 76 75 73 73 73 72 72 70 69 70 72 74 74 74 73 74 74 74 72 70 71 70 70 71 73 72 72 71 71 67 60
65 66 66 65 66 67 68 70 71 71 71 70 72 74 74 74 74 74 74 75 76 77 76 75 74 73 74 74 75 76 76 76 76 75 74 74 74 73 73 73 71 70 69 69 71 73 74 74 73 73 74 74 74 73 72 72 73 73 73 74 75 74 72
63 63 65 67 68 69 68 68 68 69 69 69 70 72 73 74 74 75 76 77 79 79 76 74 74 75 74 75 76 76 77 75 73 74 76 76 76 76 75 74 74 72 70 71 71 71 72 73 74 74 75 75 75 75 75 73 72 71 70 69 70 72 73
61 62 64 65 68 68 67 67 67 67 68 69 70 71 71 72 74 74 74 76 77 76 75 75 74 75 75 75 75 74 74 75 76 76 74 72 71 69 68 69 73 70 67 65 63 65 69 72 72 74 75 76 75 74 73 73 70 66 55 57 51 56 66
59 60 61 64 67 67 67 67 67 66 67 68 70 70 71 71 72 73 76 75 75 75 74 73 73 74 74 75 74 74 75 75 76 75 74 75 72 70 67 57 49 56 67 64 55 48 46 52 61 63 71 71 68 67 70 70 65 49 44 43 43 44 45
59 59 59 61 62 63 65 66 67 67 66 67 69 69 70 70 70 71 72 74 75 74 73 73 72 72 73 73 74 73 73 73 73 74 73 72 71 69 67 66 62 46 44 51 50 47 43 43 44 45 47 61 69 60 48 49 44 42 42 44 44 43 42
60 60 60 61 60 61 62 63 65 66 66 67 68 69 70 71 71 70 72 72 73 73 73 73 72 71 72 72 70 70 71 71 70 71 71 70 70 69 68 67 65 63 48 43 47 46 43 43 43 43 44 43 50 62 63 51 44 41 43 43 42 44 41
MSLP
1013.67 1014.19 1014.39 1014.51 1014.71 1014.83 1015.07 1015.35 1015.51 1015.71 1015.91 1016.07 1016.19 1016.19 1016.35 1016.47 1016.75 1016.99 1017.35 1017.83 1018.31 1018.67 1018.75 1018.87 1019.15 1019.23 1019.47 1019.59 1019.67 1019.79 1019.87 1020.07 1020.15 1020.39 1020.55 1020.63 1020.63 1020.71 1020.91 1020.83 1021.03 1021.15 1020.95 1021.07 1021.07 1021.15 1021.11 1021.03 1021.19 1021.19 1021.27 1021.43 1021.59 1021.67 1021.79 1021.83 1021.91 1021.87 1021.91 1021.95 1021.99 1022.03 1022.19
1013.87 1014.07 1014.27 1014.27 1014.63 1014.71 1014.71 1015.11 1015.35 1015.39 1015.59 1015.75 1015.91 1016.03 1016.03 1016.27 1016.67 1016.99 1017.23 1017.55 1017.95 1018.31 1018.51 1018.71 1018.99 1019.19 1019.27 1019.39 1019.43 1019.67 1019.95 1020.03 1020.07 1020.19 1020.27 1020.51 1020.59 1020.67 1020.63 1020.75 1020.87 1021.03 1021.11 1020.95 1020.87 1020.91 1020.99 1021.07 1021.15 1021.35 1021.47 1021.51 1021.55 1021.59 1021.67 1021.79 1021.83 1021.91 1021.83 1021.99 1022.11 1022.19 1022.11
1014.35 1014.51 1014.39 1014.27 1014.39 1014.51 1014.51 1014.67 1015.03 1015.07 1015.23 1015.39 1015.47 1015.71 1015.87 1016.19 1016.39 1016.71 1017.03 1017.39 1017.87 1018.07 1018.19 1018.47 1018.75 1018.95 1019.03 1019.15 1019.39 1019.59 1019.71 1019.83 1020.03 1020.23 1020.39 1020.35 1020.51 1020.35 1020.39 1020.51 1020.67 1020.67 1020.63 1020.67 1020.83 1020.87 1020.87 1021.03 1021.11 1021.19 1021.35 1021.43 1021.35 1021.55 1021.63 1021.71 1021.79 1021.79 1021.83 1021.95 1022.07 1022.11 1022.27
1014.31 1014.27 1014.23 1014.15 1014.07 1014.07 1014.19 1014.47 1014.79 1014.71 1014.75 1014.99 1015.15 1015.35 1015.63 1015.99 1015.99 1016.27 1016.51 1016.87 1017.51 1017.87 1018.27 1018.23 1018.43 1018.63 1018.79 1019.11 1019.31 1019.47 1019.63 1019.71 1019.75 1019.87 1019.95 1019.91 1020.15 1020.19 1020.35 1020.55 1020.63 1020.43 1020.67 1020.79 1020.55 1020.71 1020.55 1020.83 1021.07 1021.19 1021.31 1021.39 1021.47 1021.35 1021.39 1021.55 1021.55 1021.63 1021.71 1021.87 1021.95 1021.91 1022.11
1013.51 1013.55 1013.95 1014.39 1014.71 1014.59 1014.43 1014.51 1014.67 1014.59 1014.67 1014.63 1014.71 1014.99 1015.19 1015.51 1015.75 1015.99 1016.23 1016.39 1016.71 1017.39 1017.59 1017.79 1017.87 1018.11 1018.39 1018.63 1018.87 1019.03 1019.27 1019.47 1019.63 1019.63 1019.67 1019.67 1019.83 1019.99 1020.35 1020.39 1020.43 1020.55 1020.51 1020.43 1020.51 1020.75 1020.91 1020.99 1020.99 1021.11 1021.23 1021.35 1021.39 1021.35 1021.47 1021.43 1021.47 1021.55 1021.63 1021.79 1021.99 1021.91 1021.99
1013.11 1013.51 1013.87 1014.35 1014.87 1014.59 1014.43 1014.35 1014.27 1014.31 1014.47 1014.63 1014.71 1014.95 1015.03 1015.27 1015.43 1015.83 1015.99 1016.27 1016.51 1016.71 1017.07 1017.43 1017.63 1017.91 1018.35 1018.35 1018.51 1018.63 1018.87 1019.15 1019.31 1019.47 1019.59 1019.71 1019.95 1020.07 1020.19 1020.31 1020.23 1020.35 1020.39 1020.51 1020.27 1020.47 1020.71 1020.79 1020.79 1020.91 1021.07 1021.07 1021.15 1021.11 1021.15 1021.31 1021.31 1021.31 1021.55 1021.67 1021.83 1021.83 1021.83
1013.03 1013.43 1013.87 1014.07 1014.27 1014.47 1014.39 1014.43 1014.31 1014.15 1014.07 1014.15 1014.35 1014.55 1014.67 1014.91 1015.27 1015.39 1015.63 1016.03 1016.23 1016.79 1016.99 1017.27 1017.39 1017.63 1018.03 1018.07 1018.35 1018.55 1018.99 1019.11 1019.27 1019.43 1019.43 1019.55 1019.71 1019.95 1019.95 1019.99 1020.07 1020.07 1019.91 1020.03 1020.27 1020.19 1020.43 1020.67 1020.71 1020.79 1020.87 1020.83 1020.95 1020.99 1021.11 1021.31 1021.35 1021.27 1021.39 1021.67 1021.83 1021.83 1021.87
1013.15 1013.51 1013.67 1013.75 1013.79 1013.87 1013.99 1014.11 1014.07 1013.83 1013.83 1013.95 1014.47 1014.83 1014.91 1014.67 1014.87 1015.19 1015.63 1015.91 1016.27 1016.47 1016.71 1016.87 1017.15 1017.39 1017.75 1017.91 1018.07 1018.39 1018.67 1018.79 1018.87 1019.11 1019.19 1019.39 1019.47 1019.75 1019.75 1019.83 1019.95 1019.91 1019.95 1020.15 1020.15 1020.07 1020.23 1020.43 1020.39 1020.55 1020.75 1020.87 1020.95 1020.99 1021.03 1021.23 1021.39 1021.27 1021.31 1021.59 1021.79 1021.83 1021.55
1012.87 1013.11 1013.75 1013.67 1013.63 1013.63 1013.75 1013.87 1013.91 1013.83 1014.07 1014.31 1014.51 1014.79 1014.87 1014.95 1015.03 1015.27 1015.39 1015.83 1016.23 1016.51 1016.75 1016.51 1016.75 1016.99 1017.39 1017.71 1017.99 1018.27 1018.31 1018.47 1018.67 1018.83 1019.07 1019.19 1019.19 1019.31 1019.27 1019.43 1019.63 1019.59 1019.91 1019.91 1019.75 1019.87 1019.91 1020.07 1020.15 1020.47 1020.63 1020.79 1020.87 1021.07 1021.11 1021.19 1021.19 1021.15 1021.23 1021.43 1021.67 1021.79 1021.55
1013.39 1013.83 1013.91 1013.79 1013.67 1013.83 1014.07 1014.23 1014.15 1014.15 1014.51 1014.67 1014.71 1014.95 1014.91 1014.95 1015.03 1015.23 1015.47 1015.71 1016.11 1016.55 1016.63 1016.51 1016.71 1016.99 1017.39 1017.63 1017.79 1017.91 1018.15 1018.43 1018.43 1018.55 1018.71 1018.95 1018.91 1019.03 1018.91 1018.79 1019.03 1019.23 1019.55 1019.59 1019.39 1019.67 1019.83 1019.79 1019.95 1020.27 1020.63 1020.79 1020.91 1021.03 1021.07 1021.11 1021.07 1021.03 1021.03 1021.31 1021.39 1021.51 1021.63
1013.55 1013.71 1014.07 1014.27 1014.51 1014.83 1014.95 1014.91 1015.27 1015.43 1015.11 1015.03 1014.99 1014.95 1014.83 1015.03 1015.23 1015.35 1015.67 1015.75 1016.07 1016.31 1016.39 1016.47 1016.63 1017.03 1017.35 1017.59 1017.87 1017.91 1017.99 1018.19 1018.23 1018.47 1018.55 1018.55 1018.43 1018.63 1018.67 1018.71 1018.67 1018.79 1019.15 1019.23 1019.35 1019.35 1019.55 1019.91 1019.87 1020.19 1020.51 1020.63 1020.71 1020.83 1020.91 1020.87 1020.87 1021.03 1020.87 1020.83 1020.83 1021.07 1021.19
1014.35 1014.27 1014.31 1014.31 1014.59 1014.87 1015.31 1015.31 1015.27 1015.51 1015.95 1015.55 1015.19 1015.11 1015.03 1015.15 1015.39 1015.47 1015.71 1015.91 1015.87 1016.19 1016.39 1016.51 1016.63 1016.99 1017.35 1017.55 1017.83 1017.99 1017.99 1018.03 1018.03 1018.23 1018.35 1018.39 1018.23 1018.27 1018.31 1018.43 1018.67 1018.67 1018.75 1018.87 1019.19 1019.31 1019.39 1019.71 1019.83 1019.99 1020.39 1020.35 1020.35 1020.47 1020.59 1020.59 1020.67 1020.79 1020.79 1020.67 1020.59 1020.75 1020.83
1014.63 1014.67 1014.67 1014.63 1014.63 1014.75 1014.99 1015.31 1015.47 1015.47 1015.63 1015.63 1015.51 1015.47 1015.59 1015.35 1015.39 1015.47 1015.71 1015.95 1015.91 1015.91 1016.19 1016.35 1016.59 1016.91 1017.23 1017.31 1017.59 1017.87 1017.99 1018.07 1018.07 1018.03 1018.03 1018.19 1018.19 1017.99 1018.07 1018.27 1018.31 1018.55 1018.75 1018.71 1018.95 1019.15 1019.27 1019.31 1019.63 1019.71 1019.91 1020.15 1020.15 1020.19 1020.27 1020.43 1020.43 1020.59 1020.67 1020.63 1020.51 1020.55 1020.71
1014.71 1014.67 1014.71 1014.75 1014.87 1014.91 1015.07 1015.15 1015.27 1015.43 1015.55 1015.47 1015.43 1015.55 1015.83 1015.67 1015.59 1015.67 1015.79 1016.03 1015.95 1015.95 1016.15 1016.27 1016.51 1016.79 1017.03 1017.19 1017.35 1017.59 1017.75 1017.87 1017.91 1017.95 1017.95 1017.95 1018.07 1018.19 1018.15 1018.11 1018.23 1018.39 1018.51 1018.59 1018.91 1019.03 1019.07 1019.15 1019.27 1019.39 1019.55 1019.75 1019.87 1019.91 1019.87 1020.15 1020.35 1020.43 1020.51 1020.47 1020.43 1020.39 1020.55
1015.11 1014.87 1014.79 1014.91 1014.91 1014.91 1014.91 1015.11 1015.23 1015.27 1015.23 1015.47 1015.51 1015.71 1015.79 1015.95 1015.99 1015.83 1015.91 1015.91 1015.99 1016.03 1016.07 1016.07 1016.39 1016.67 1016.83 1016.99 1017.23 1017.31 1017.31 1017.39 1017.59 1017.79 1018.03 1018.11 1018.27 1018.43 1018.43 1018.39 1018.43 1018.51 1018.63 1018.79 1018.91 1018.83 1018.83 1018.87 1018.95 1019.19 1019.39 1019.39 1019.63 1019.71 1019.71 1019.83 1020.11 1020.07 1020.23 1020.47 1020.51 1020.39 1020.39
1015.23 1015.07 1015.15 1015.07 1015.03 1015.07 1015.07 1015.11 1015.35 1015.39 1015.43 1015.59 1015.55 1015.59 1015.75 1015.87 1015.95 1015.99 1016.23 1016.43 1016.35 1016.31 1016.11 1016.19 1016.55 1016.75 1016.79 1016.95 1017.07 1017.11 1017.11 1017.27 1017.47 1017.79 1017.99 1018.27 1018.39 1018.51 1018.51 1018.47 1018.47 1018.51 1018.79 1018.95 1019.03 1019.07 1019.07 1019.11 1019.11 1019.19 1019.39 1019.67 1019.79 1019.87 1019.79 1019.79 1019.63 1019.75 1020.11 1020.19 1020.19 1020.23 1020.15
1014.79 1015.03 1015.11 1015.19 1015.43 1015.55 1015.59 1015.51 1015.51 1015.63 1015.79 1015.83 1015.79 1015.71 1015.75 1015.79 1015.79 1015.79 1016.03 1016.15 1016.31 1016.39 1016.19 1016.27 1016.67 1016.71 1016.83 1016.99 1016.95 1017.11 1017.19 1017.47 1017.59 1017.75 1018.15 1018.23 1018.31 1018.43 1018.59 1018.71 1018.59 1018.67 1018.87 1019.03 1019.15 1019.27 1019.35 1019.51 1019.63 1019.55 1019.35 1019.43 1019.59 1019.75 1019.75 1019.55 1020.31 1020.55 1020.43 1020.59 1020.67 1020.51 1020.31
1014.67 1014.91 1015.35 1015.75 1015.91 1015.91 1015.95 1016.07 1016.35 1016.31 1016.43 1016.67 1016.75 1016.71 1016.67 1016.59 1016.39 1016.15 1016.23 1016.19 1016.27 1016.27 1016.19 1016.55 1016.71 1016.95 1017.07 1017.03 1016.99 1017.19 1017.23 1017.31 1017.51 1017.87 1018.03 1018.15 1018.35 1018.47 1018.59 1018.75 1018.99 1019.15 1019.27 1019.27 1019.31 1019.43 1019.39 1019.59 1019.67 1019.67 1019.47 1019.31 1019.35 1019.43 1019.39 1019.95 1020.99 1020.91 1020.99 1020.99 1020.95 1020.83 1020.43
1014.67 1014.91 1015.43 1015.67 1015.91 1016.27 1016.31 1016.35 1016.39 1016.47 1016.55 1016.63 1016.63 1016.71 1016.67 1016.47 1016.47 1016.39 1016.19 1016.23 1016.15 1016.35 1016.55 1016.71 1016.75 1016.91 1017.11 1017.23 1017.35 1017.39 1017.43 1017.55 1017.67 1017.83 1018.03 1018.23 1018.35 1018.51 1018.63 1018.91 1019.15 1019.35 1019.39 1019.51 1019.39 1019.39 1019.63 1019.63 1019.63 1019.79 1019.67 1019.51 1019.75 1019.63 1019.59 1020.31 1021.03 1021.15 1021.23 1021.19 1021.11 1021.03 1020.87
1014.27 1014.63 1015.23 1015.55 1015.91 1016.15 1016.27 1016.23 1016.31 1016.47 1016.59 1016.55 1016.39 1016.27 1016.31 1016.27 1016.31 1016.35 1016.27 1016.31 1016.31 1016.59 1016.59 1016.71 1016.79 1016.91 1017.11 1017.19 1017.47 1017.71 1017.83 1017.95 1018.07 1018.27 1018.31 1018.35 1018.47 1018.55 1018.87 1019.19 1019.67 1019.67 1019.67 1019.63 1019.47 1019.63 1019.67 1019.47 1019.63 1019.63 1019.71 1019.67 1019.75 1019.99 1020.47 1020.91 1021.51 1021.55 1021.39 1021.19 1021.11 1021.03 1020.95
1014.23 1014.99 1015.63 1015.99 1016.43 1016.47 1016.55 1016.55 1016.55 1016.63 1016.59 1016.31 1016.35 1016.27 1016.11 1016.39 1016.35 1016.71 1016.95 1017.03 1017.15 1016.91 1016.87 1016.99 1017.03 1017.03 1016.95 1017.03 1017.11 1017.27 1017.43 1017.75 1017.99 1018.27 1018.51 1018.71 1018.75 1018.91 1019.35 1019.59 1019.75 1019.87 1019.91 1019.55 1019.31 1019.39 1019.59 1019.51 1019.55 1019.63 1019.67 1019.67 1019.83 1020.11 1020.75 1021.51 1021.95 1021.75 1021.51 1021.31 1021.11 1020.91 1020.87
1014.51 1015.23 1015.79 1015.87 1016.43 1016.71 1016.79 1016.67 1016.63 1016.71 1016.75 1016.55 1016.55 1016.59 1016.55 1016.35 1016.47 1016.87 1017.11 1017.07 1017.27 1017.31 1017.27 1017.31 1017.31 1017.23 1017.15 1017.27 1017.31 1017.35 1017.35 1017.63 1018.03 1018.35 1018.51 1018.71 1018.95 1019.23 1019.43 1019.47 1019.43 1019.79 1020.31 1020.11 1019.75 1019.35 1019.11 1019.31 1019.35 1019.75 1019.87 1019.83 1019.95 1020.43 1020.99 1021.55 1022.07 1021.87 1021.63 1021.43 1021.15 1021.03 1020.47
1014.55 1015.35 1015.71 1015.99 1016.07 1016.31 1016.31 1016.51 1016.71 1016.79 1016.71 1016.71 1016.71 1016.87 1016.91 1016.55 1016.39 1016.91 1017.15 1017.31 1017.51 1017.59 1017.71 1017.75 1017.91 1017.95 1017.75 1017.75 1017.75 1017.71 1017.71 1017.87 1018.19 1018.47 1018.71 1019.03 1019.43 1019.75 1019.79 1019.75 1019.79 1019.91 1020.19 1020.31 1019.91 1019.71 1019.71 1019.71 1019.79 1019.87 1020.07 1020.31 1020.51 1020.83 1021.27 1021.63 1022.11 1021.99 1021.71 1021.43 1021.23 1020.87 1020.19
1014.67 1015.35 1015.75 1015.91 1015.91 1016.03 1016.19 1016.27 1016.43 1016.51 1016.67 1016.99 1017.19 1017.19 1017.11 1016.99 1016.95 1016.95 1017.19 1017.39 1017.55 1017.71 1017.99 1018.11 1018.31 1018.35 1018.19 1018.15 1018.03 1018.11 1018.19 1018.27 1018.43 1018.75 1018.99 1019.27 1019.59 1019.67 1019.71 1019.83 1020.15 1020.39 1020.31 1020.23 1019.99 1019.99 1020.11 1020.15 1020.31 1020.39 1020.43 1020.71 1020.91 1020.87 1021.39 1021.79 1022.23 1022.11 1021.79 1021.51 1021.27 1020.95 1020.43
1015.07 1015.59 1015.83 1015.91 1015.99 1016.27 1016.27 1016.39 1016.43 1016.67 1016.87 1017.15 1017.55 1017.47 1017.27 1017.23 1017.27 1017.27 1017.47 1017.55 1017.63 1017.83 1018.15 1018.15 1018.07 1018.23 1018.35 1018.23 1018.07 1018.11 1018.11 1018.23 1018.39 1018.71 1019.07 1019.39 1019.55 1019.47 1019.75 1020.03 1020.19 1020.47 1020.59 1020.51 1020.31 1020.39 1020.43 1020.51 1020.79 1021.11 1021.23 1021.39 1021.47 1021.63 1021.59 1021.79 1022.15 1022.35 1022.07 1021.71 1021.43 1020.99 1020.35
1015.87 1016.03 1016.07 1015.87 1015.87 1015.99 1016.35 1016.59 1016.87 1016.99 1017.31 1017.67 1017.91 1017.63 1017.59 1017.51 1017.55 1017.75 1017.87 1017.87 1017.55 1017.87 1018.27 1018.43 1018.35 1018.15 1018.07 1018.19 1018.27 1018.31 1018.47 1018.71 1018.87 1018.99 1019.23 1019.55 1019.83 1019.99 1020.15 1020.35 1020.55 1020.83 1021.03 1021.03 1020.87 1020.99 1021.15 1021.27 1021.35 1021.59 1021.83 1021.79 1021.91 1022.03 1022.07 1022.27 1022.39 1022.63 1022.51 1022.15 1021.75 1021.39 1020.83
1015.71 1015.75 1015.95 1016.03 1016.43 1016.55 1016.79 1016.79 1016.79 1016.95 1017.31 1017.79 1017.79 1017.63 1017.63 1017.71 1017.95 1018.23 1018.27 1018.23 1018.23 1018.47 1018.55 1018.47 1018.39 1018.51 1018.55 1018.55 1018.71 1018.87 1018.91 1018.91 1019.11 1019.39 1019.55 1019.71 1019.95 1020.27 1020.75 1020.99 1021.03 1020.99 1021.07 1021.31 1021.47 1021.55 1021.75 1021.83 1021.91 1021.99 1022.19 1022.35 1022.51 1022.59 1022.59 1022.63 1022.75 1022.99 1022.87 1022.63 1022.31 1021.95 1021.55
1016.11 1015.83 1016.03 1016.63 1017.07 1017.03 1017.19 1017.31 1017.55 1017.67 1017.75 1017.67 1017.59 1017.63 1017.83 1018.07 1018.43 1018.55 1018.51 1018.55 1018.79 1018.63 1018.35 1018.47 1018.51 1018.47 1018.59 1018.75 1018.95 1019.31 1019.23 1019.31 1019.43 1019.51 1019.83 1020.11 1020.31 1020.51 1020.75 1020.79 1020.91 1021.03 1021.19 1021.35 1021.71 1021.95 1022.15 1022.27 1022.35 1022.43 1022.59 1022.71 1022.83 1022.99 1023.11 1023.07 1023.07 1023.11 1023.19 1023.07 1022.83 1022.59 1022.35
1017.31 1017.47 1017.27 1017.55 1017.67 1017.55 1017.67 1017.95 1018.03 1018.03 1018.07 1017.91 1017.83 1017.95 1018.15 1018.35 1018.71 1018.79 1018.71 1018.99 1018.99 1018.47 1018.43 1018.55 1018.67 1018.67 1018.79 1019.11 1019.51 1019.87 1019.67 1019.75 1020.11 1020.15 1020.19 1020.51 1020.63 1020.71 1020.87 1020.91 1021.11 1021.31 1021.43 1021.71 1021.91 1022.07 1022.31 1022.51 1022.55 1022.67 1022.83 1022.95 1023.07 1023.15 1023.19 1023.27 1023.35 1023.35 1023.27 1023.27 1023.03 1022.91 1022.79
1017.71 1017.95 1017.87 1017.71 1017.75 1017.87 1017.79 1018.19 1018.31 1018.51 1018.47 1018.43 1018.51 1018.51 1018.59 1018.75 1019.03 1019.11 1019.23 1019.39 1018.99 1018.75 1018.75 1018.87 1018.99 1019.11 1019.35 1019.67 1019.95 1020.03 1019.91 1019.87 1020.23 1020.67 1020.83 1020.79 1020.91 1021.03 1021.11 1021.19 1021.35 1021.55 1021.67 1021.79 1021.95 1022.23 1022.55 1022.79 1022.75 1022.71 1022.95 1023.35 1023.51 1023.43 1023.43 1023.39 1023.35 1023.39 1023.23 1023.19 1023.23 1023.19 1023.15
1018.15 1018.43 1018.31 1018.39 1018.43 1018.55 1018.43 1018.67 1018.99 1019.03 1019.03 1019.07 1019.11 1019.03 1019.03 1019.15 1019.43 1019.59 1019.75 1019.51 1019.11 1019.15 1019.11 1019.23 1019.39 1019.59 1019.79 1019.95 1020.11 1020.23 1020.23 1020.39 1020.71 1021.03 1021.15 1021.11 1021.11 1021.43 1021.47 1021.51 1021.43 1021.71 1021.79 1021.91 1022.15 1022.31 1022.55 1022.75 1022.67 1022.91 1023.19 1023.39 1023.55 1023.55 1023.59 1023.51 1023.27 1023.15 1023.19 1023.19 1023.19 1023.23 1023.19
1018.55 1018.79 1018.95 1018.91 1018.87 1018.79 1019.03 1019.31 1019.47 1019.67 1019.95 1019.91 1019.67 1019.51 1019.35 1019.43 1019.59 1019.95 1019.91 1019.51 1019.43 1019.35 1019.43 1019.55 1019.83 1020.03 1020.11 1020.07 1020.19 1020.35 1020.47 1020.75 1020.99 1021.23 1021.35 1021.39 1021.43 1021.67 1021.91 1022.03 1022.07 1022.11 1022.03 1021.87 1021.95 1022.07 1022.19 1022.31 1022.27 1022.43 1022.75 1023.11 1023.35 1023.59 1023.67 1023.55 1023.39 1023.35 1023.35 1023.31 1023.31 1023.31 1023.39
1019.39 1019.59 1019.75 1019.63 1019.55 1019.35 1019.59 1019.87 1020.03 1020.19 1020.31 1020.51 1020.31 1020.11 1019.95 1019.91 1019.87 1019.95 1019.83 1019.71 1019.55 1019.51 1019.67 1019.83 1020.03 1020.19 1020.27 1020.35 1020.39 1020.51 1020.63 1020.87 1021.07 1021.39 1021.51 1021.51 1021.59 1021.87 1022.15 1022.19 1022.35 1022.39 1022.51 1022.67 1022.59 1022.39 1022.39 1022.47 1022.51 1022.55 1022.59 1022.71 1022.87 1023.11 1023.31 1023.35 1023.39 1023.47 1023.47 1023.31 1023.19 1023.27 1023.35
1020.19 1020.15 1019.87 1019.59 1019.67 1019.67 1019.87 1020.23 1020.51 1020.67 1020.75 1020.87 1020.71 1020.47 1020.27 1020.23 1020.19 1020.07 1019.87 1019.75 1019.51 1019.51 1019.83 1020.15 1020.23 1020.31 1020.43 1020.43 1020.47 1020.59 1020.71 1021.03 1021.31 1021.35 1021.43 1021.51 1021.55 1021.79 1021.99 1022.15 1022.27 1022.59 1022.79 1022.75 1022.91 1022.95 1022.87 1022.59 1022.55 1022.55 1022.51 1022.63 1022.67 1022.83 1022.99 1023.31 1023.63 1023.83 1023.99 1023.99 1023.83 1023.55 1023.35
1020.27 1020.51 1020.47 1020.03 1019.95 1020.11 1020.47 1020.67 1020.91 1020.95 1020.99 1021.07 1020.91 1020.79 1020.71 1020.59 1020.43 1020.39 1020.27 1020.03 1019.91 1019.99 1020.07 1020.23 1020.35 1020.31 1020.39 1020.43 1020.59 1020.91 1021.07 1021.11 1021.19 1021.31 1021.71 1022.07 1022.39 1022.71 1022.99 1022.99 1022.67 1022.91 1023.39 1023.71 1023.75 1023.63 1023.19 1022.87 1022.79 1022.67 1022.59 1022.55 1022.67 1022.87 1023.15 1023.35 1023.91 1024.55 1025.31 1025.23 1025.43 1025.03 1024.27
1020.31 1020.43 1020.47 1020.47 1020.19 1020.47 1020.75 1020.95 1021.15 1021.35 1021.43 1021.39 1021.19 1021.03 1020.95 1020.91 1020.79 1020.55 1020.35 1020.35 1020.31 1020.27 1020.43 1020.63 1020.63 1020.59 1020.59 1020.67 1020.95 1021.11 1021.03 1021.07 1021.19 1021.55 1021.75 1022.03 1022.51 1022.95 1023.55 1024.11 1024.15 1023.83 1023.59 1023.99 1024.67 1024.43 1024.11 1023.83 1024.03 1023.95 1023.27 1023.39 1023.79 1023.83 1023.55 1023.91 1024.63 1025.47 1025.63 1025.63 1025.59 1025.55 1025.43
1020.43 1020.51 1020.67 1020.79 1020.91 1021.19 1021.35 1021.43 1021.51 1021.63 1021.71 1021.63 1021.55 1021.43 1021.31 1021.31 1021.23 1021.15 1020.95 1020.71 1020.55 1020.59 1020.75 1020.79 1020.91 1020.99 1021.03 1021.07 1021.03 1021.11 1021.19 1021.39 1021.63 1021.75 1021.91 1022.27 1022.79 1023.19 1023.55 1023.95 1024.39 1024.83 1025.03 1024.99 1025.03 1024.79 1024.75 1024.75 1024.63 1024.39 1024.39 1024.15 1024.03 1024.75 1025.11 1025.35 1025.67 1025.71 1025.71 1025.67 1025.55 1025.47 1025.23
1020.39 1020.55 1020.83 1021.03 1021.31 1021.63 1021.75 1021.95 1021.99 1022.07 1022.07 1021.91 1021.83 1021.75 1021.59 1021.47 1021.39 1021.39 1021.19 1021.11 1020.99 1020.87 1020.99 1020.99 1021.15 1021.27 1021.23 1021.31 1021.67 1021.79 1021.71 1021.79 1022.03 1022.15 1022.35 1022.51 1022.71 1023.03 1023.47 1023.87 1024.35 1024.87 1025.39 1025.51 1025.07 1025.03 1025.03 1024.95 1024.91 1024.91 1024.79 1024.79 1024.71 1024.51 1024.87 1025.47 1025.71 1025.71 1025.63 1025.63 1025.59 1025.43 1025.31
Wind_Speed
16 16 15 13 13 15 14 12 12 12 12 12 12 13 12 11 11 11 10 11 12 12 12 12 11 10 10 9 9 8 7 7 6 6 5 5 4 4 4 4 4 4 4 4 3 3 3 2 2 3 3 3 4 4 3 3 3 3 3 3 3 2 2
14 14 14 14 14 15 15 14 13 12 12 12 12 13 12 13 12 12 11 12 13 13 12 12 12 10 10 10 9 9 9 8 7 5 5 4 4 4 4 4 4 3 3 3 2 2 2 3 4 4 4 4 4 4 4 3 3 3 3 4 3 3 3
12 12 12 13 14 14 15 14 13 13 13 12 12 12 13 12 13 13 12 13 13 13 12 12 12 11 10 10 9 10 10 9 8 8 8 7 7 7 6 4 4 4 4 4 4 3 4 4 3 3 4 4 4 4 4 3 4 4 4 3 4 4 4
15 15 14 13 13 14 14 13 13 13 12 13 12 13 14 14 14 13 12 13 14 13 13 12 12 12 11 11 10 10 10 10 9 8 8 7 6 6 5 5 4 4 4 5 5 4 3 3 4 4 5 4 4 4 4 4 4 5 4 4 4 4 4
19 17 15 13 11 10 12 12 13 13 13 13 13 13 13 14 13 12 13 13 14 14 14 13 11 11 10 10 9 9 10 10 9 8 7 7 6 5 5 6 6 6 4 5 5 4 4 4 5 5 6 5 5 5 5 5 5 4 4 5 4 4 4
17 16 14 12 11 12 12 12 13 14 13 14 14 13 12 13 12 14 13 13 13 13 13 12 13 11 11 11 10 9 9 9 9 9 8 7 6 6 6 6 6 6 7 6 5 6 6 6 6 6 7 7 6 6 6 6 6 6 6 5 5 4 4
14 14 14 14 14 13 13 12 11 13 13 13 12 12 12 13 13 13 12 13 14 13 14 14 12 12 11 10 10 9 9 9 9 10 9 9 8 7 6 6 6 6 6 6 6 5 6 6 6 6 6 6 6 6 5 5 5 5 5 5 5 5 4
13 13 13 14 14 14 13 13 13 14 13 11 10 11 12 12 12 13 13 11 12 12 12 13 12 11 10 10 9 11 10 10 9 9 9 10 9 9 8 7 7 7 6 6 6 6 7 7 7 6 6 6 6 5 5 5 5 5 5 5 5 6 5
11 12 12 13 13 12 12 12 12 12 13 12 12 11 12 11 10 11 12 12 11 12 12 11 10 10 10 10 10 11 10 10 10 9 11 11 10 10 10 9 8 7 7 7 7 7 7 7 7 7 6 6 5 5 5 5 6 6 5 5 5 5 5
12 11 12 11 9 7 7 6 6 8 10 10 10 10 11 11 10 10 10 11 11 12 12 12 10 10 10 10 10 11 10 10 9 11 11 11 10 10 10 9 9 9 8 8 7 7 7 7 7 7 7 6 6 6 6 6 6 6 6 6 6 6 6
6 10 11 9 9 8 8 10 8 4 6 8 8 8 9 9 9 9 10 10 10 10 10 10 9 10 10 10 10 10 10 11 11 10 11 11 11 11 10 10 9 8 9 9 8 7 7 7 6 6 7 7 7 7 7 7 7 6 6 6 6 6 6
8 8 10 10 8 9 9 9 8 8 7 6 7 7 8 8 8 9 9 10 9 9 10 10 10 10 10 9 10 10 10 10 10 10 11 11 10 11 10 10 10 9 8 9 8 8 7 8 7 7 7 7 7 7 7 7 7 7 7 7 7 7 6
8 8 8 9 11 9 8 8 9 9 10 9 8 7 4 7 9 9 9 10 11 10 10 11 10 10 10 10 11 10 10 9 9 8 9 9 9 8 9 9 9 10 9 9 9 9 9 9 8 7 8 8 8 7 8 7 7 7 7 7 7 6 7
7 9 9 9 10 11 12 11 11 10 8 8 8 6 5 6 6 7 8 9 9 9 9 9 10 11 11 10 10 10 10 9 9 8 8 7 7 7 8 8 8 8 8 8 9 9 9 9 9 9 8 8 8 8 7 7 7 7 7 7 7 7 7
9 9 9 10 10 10 11 11 11 10 11 8 7 8 8 7 5 6 5 6 7 8 9 9 10 11 11 10 10 10 10 9 8 7 7 8 7 7 7 7 7 7 7 7 7 8 9 9 8 8 8 8 7 8 7 8 8 7 7 8 7 6 6
9 8 9 8 7 7 7 8 7 8 9 9 9 9 9 9 10 8 7 6 8 8 7 7 9 9 10 10 9 9 8 8 7 7 7 7 7 7 7 8 8 8 8 7 7 7 6 6 6 6 7 6 7 6 7 7 7 6 2 5 3 5 5
10 10 9 8 7 7 7 6 8 8 8 8 8 9 8 8 9 9 10 10 10 8 7 9 9 9 9 9 8 8 8 7 7 7 7 6 6 6 6 6 6 6 6 6 6 6 5 6 7 7 7 7 7 8 8 6 6 11 5 3 5 6 6
8 9 9 8 8 8 8 9 9 9 8 8 8 6 5 4 4 7 7 8 8 7 7 10 10 9 8 7 8 8 8 7 8 8 8 7 6 5 5 4 4 4 4 5 6 5 6 6 7 6 7 6 7 7 8 4 9 8 9 7 5 7 7
9 9 9 8 9 9 9 9 9 9 8 7 5 4 4 4 5 5 6 8 7 6 6 9 10 9 9 8 7 7 7 7 8 8 7 7 6 5 4 4 4 4 4 4 3 4 6 6 5 6 6 6 4 6 1 5 11 9 7 6 5 5 8
9 9 8 8 9 10 10 9 9 9 9 9 7 6 5 5 6 5 2 3 5 8 10 9 9 9 9 9 9 8 7 7 7 5 4 3 4 5 3 4 4 4 3 1 2 3 5 7 7 6 5 5 4 2 4 6 10 9 7 5 5 4 6
9 9 8 10 10 10 9 10 11 10 10 9 9 8 7 6 5 5 5 5 6 2 6 5 5 8 8 9 9 9 9 9 9 9 8 7 7 7 8 10 7 6 4 5 6 6 7 7 7 5 5 4 4 3 5 6 12 10 10 8 6 4 5
9 9 9 9 10 11 11 10 10 10 9 7 5 6 6 7 7 6 7 7 8 7 6 5 6 7 6 6 5 5 5 6 6 6 7 7 7 9 10 10 8 8 4 2 0 2 5 5 4 5 4 3 4 4 4 7 11 10 10 9 8 7 5
11 8 8 9 11 11 11 10 9 9 8 7 7 6 7 6 7 9 9 9 8 8 7 7 7 5 6 6 4 5 7 8 8 9 9 9 9 8 8 8 6 7 6 6 5 5 3 4 4 3 3 5 5 4 4 7 11 11 11 10 10 7 5
11 9 8 9 9 11 11 10 10 9 9 9 8 7 6 7 8 9 10 10 10 10 9 7 7 6 7 8 9 9 10 9 9 9 9 7 7 8 7 6 4 4 4 5 7 8 7 6 6 5 4 6 5 4 5 7 11 13 13 12 12 9 6
10 10 10 10 12 12 12 11 11 10 10 10 9 7 7 8 9 10 11 11 12 12 11 10 10 9 8 8 10 9 9 10 10 10 8 8 7 7 7 5 7 6 5 6 7 8 6 6 8 9 7 7 7 8 7 8 10 13 13 14 13 10 5
11 11 10 10 11 12 12 13 12 12 11 10 9 8 8 8 8 9 9 9 11 12 11 9 8 9 10 10 10 10 10 9 10 10 10 10 9 8 6 6 6 7 7 7 6 7 7 7 6 8 7 7 7 7 8 9 9 11 14 14 15 14 8
10 11 10 10 11 11 11 11 11 12 12 10 8 8 8 8 9 8 8 9 11 12 11 11 10 8 8 9 10 10 10 10 11 12 12 11 10 10 9 7 7 7 7 7 6 7 6 6 6 7 8 9 8 8 8 7 8 10 13 14 15 15 11
7 10 10 11 10 9 9 9 11 11 11 10 9 8 8 8 9 8 8 8 10 10 10 10 9 9 9 9 10 10 11 11 10 10 10 9 8 9 8 7 7 7 7 6 6 7 7 7 6 6 8 8 7 7 6 8 10 6 10 12 13 13 15
11 8 11 12 9 9 9 10 10 10 9 8 8 7 8 9 9 8 8 9 8 8 9 8 8 9 10 10 10 9 10 10 9 8 7 7 7 8 8 7 7 7 7 7 7 8 8 7 7 7 7 7 6 6 6 6 7 9 8 10 12 12 12
10 10 10 10 9 9 9 9 9 9 8 7 7 7 7 8 8 8 9 9 6 9 10 10 9 10 10 10 10 9 9 11 11 10 7 8 7 7 7 8 7 7 6 6 7 7 7 6 6 7 7 6 5 5 4 4 5 6 8 9 10 10 11
8 8 9 10 9 9 7 8 9 8 8 7 7 6 6 7 9 10 10 7 7 9 10 11 11 10 10 10 10 9 9 10 9 9 7 7 7 7 7 7 6 6 5 5 6 7 7 6 6 6 7 6 6 5 5 4 4 5 6 8 8 10 10
8 6 7 9 9 10 10 9 9 9 8 6 5 6 6 6 7 8 8 8 8 8 9 10 10 10 10 9 9 10 10 11 10 9 8 9 7 7 6 6 6 5 3 4 4 5 5 5 5 6 7 7 6 5 5 5 4 4 4 4 5 5 6
9 8 8 10 9 9 10 8 8 9 8 7 6 5 5 6 6 6 7 7 8 8 9 9 9 9 9 9 9 9 9 9 8 8 8 8 8 7 6 5 5 5 5 4 3 3 4 4 5 6 6 6 6 6 5 4 4 4 4 4 3 3 3
10 10 9 10 9 10 9 8 8 8 8 7 5 5 5 5 5 5 4 5 5 7 8 8 8 8 9 9 8 8 8 8 11 9 7 7 6 6 6 6 5 6 5 5 3 4 3 3 4 4 4 5 4 4 4 4 4 4 4 5 4 4 4
11 10 9 11 10 10 9 8 8 8 8 7 5 5 5 5 5 4 4 3 4 5 6 7 8 8 9 8 7 7 7 7 7 7 7 7 7 9 9 7 6 7 8 8 6 5 3 3 4 4 3 2 3 2 3 2 4 4 5 3 5 5 5
10 11 10 10 10 10 9 8 8 7 7 6 6 5 5 5 4 3 4 4 4 5 6 6 6 7 7 7 7 7 7 6 6 7 7 8 8 9 10 14 14 11 6 6 9 14 14 12 6 5 4 6 7 7 5 4 4 5 2 3 3 4 5
10 10 10 9 10 9 8 7 6 6 6 5 5 4 5 5 5 4 3 2 4 5 6 6 6 6 5 6 6 6 6 6 6 6 6 7 8 7 8 8 10 14 13 11 9 11 12 12 12 14 13 7 5 8 12 9 6 3 2 2 2 4 5
10 11 10 10 9 8 8 6 5 4 5 4 3 3 3 4 5 4 4 4 3 4 5 5 6 6 6 6 6 4 5 5 6 6 6 6 7 8 8 7 8 7 9 9 10 11 11 12 13 13 14 14 11 5 5 7 6 4 2 0 1 3 4
Wind_Direction
187 186 186 189 191 191 191 189 190 186 185 188 188 189 187 185 182 177 179 179 185 186 187 190 193 192 190 188 189 189 196 193 192 193 194 197 212 213 204 210 202 217 224 209 197 205 196 208 213 215 192 192 201 186 201 201 209 199 198 202 222 231 216
186 184 185 187 189 193 190 191 192 192 191 191 190 189 189 184 180 183 178 179 187 189 188 190 193 196 194 192 188 191 194 197 197 194 195 188 192 205 219 210 229 206 229 248 204 193 193 193 205 204 210 202 201 201 198 203 209 218 208 198 221 220 219
179 181 187 189 190 193 194 191 194 198 197 196 192 189 187 182 182 183 178 179 186 192 191 191 191 195 198 194 193 192 195 197 195 196 199 195 193 204 196 211 217 216 215 200 213 196 190 203 191 203 206 208 201 190 211 202 207 209 211 210 220 217 224
192 189 187 191 194 195 195 194 195 198 197 197 194 189 184 184 186 183 182 180 183 190 194 194 193 196 197 197 197 194 196 199 203 201 203 205 193 203 200 192 214 228 198 214 194 209 188 182 185 193 201 206 212 210 203 210 204 201 204 210 227 220 229
193 190 185 184 188 193 195 193 193 197 196 196 193 192 186 184 185 184 186 185 188 192 194 195 196 195 197 198 199 198 198 198 201 207 207 205 203 199 200 208 189 209 202 204 192 198 208 200 191 190 188 206 211 203 208 200 208 201 206 209 227 226 227
184 182 179 168 186 196 194 195 197 196 196 195 192 189 188 186 188 189 189 186 191 191 194 196 198 192 199 199 204 197 195 197 201 203 208 201 200 205 198 205 205 204 192 211 199 199 194 209 203 191 195 196 210 207 202 198 204 204 199 210 221 227 239
172 172 173 173 184 191 189 191 197 198 198 196 192 190 192 190 193 193 190 190 191 189 194 195 198 194 197 200 199 202 197 197 198 204 203 206 197 213 206 200 208 203 212 187 209 200 192 199 202 199 204 210 205 207 200 202 205 207 201 206 209 219 237
176 179 176 175 180 186 191 194 199 200 198 195 189 188 198 196 195 193 192 185 189 188 197 196 193 193 192 199 198 202 200 203 198 201 207 209 201 208 202 204 197 201 208 202 197 204 197 193 196 199 204 212 206 211 202 196 208 218 209 211 211 223 212
176 177 173 178 176 178 182 190 196 199 193 195 188 190 190 193 196 195 194 180 183 186 191 199 190 187 187 193 195 200 201 205 201 200 206 209 208 206 203 195 201 197 204 213 196 196 210 191 202 187 198 214 201 201 208 200 209 215 219 216 217 228 241
166 172 176 164 149 147 132 127 186 193 188 190 188 189 189 190 190 187 190 183 182 187 186 190 184 181 184 188 194 197 199 201 208 206 205 206 210 210 212 202 194 194 205 211 213 193 202 208 203 187 194 204 201 201 211 202 211 214 208 215 225 229 230
172 181 177 166 156 143 140 143 157 187 182 180 184 187 190 187 188 186 186 186 185 185 184 187 176 179 181 185 188 195 199 200 203 207 211 210 208 208 211 215 210 192 204 207 213 205 194 198 210 196 195 206 200 203 208 207 210 216 222 215 215 220 225
178 189 190 180 159 156 163 169 171 175 192 190 172 173 182 184 187 188 185 191 190 184 180 181 177 180 180 183 187 190 200 201 203 206 208 213 214 211 211 212 216 218 204 213 211 205 205 196 203 200 202 214 207 207 207 213 216 215 228 225 213 213 224
172 183 185 192 190 183 170 169 174 175 183 194 179 184 172 184 184 192 192 193 193 189 182 181 179 179 183 187 188 186 195 199 206 207 209 206 217 217 211 215 214 217 220 213 217 211 212 202 203 201 205 207 216 214 207 213 218 218 221 231 231 223 224
174 183 179 186 191 193 193 191 187 180 176 181 182 193 203 204 194 187 195 196 193 188 183 181 181 181 182 190 191 186 186 192 200 210 214 215 210 221 224 219 218 218 223 224 216 221 220 221 208 202 209 212 216 218 219 210 218 215 221 227 232 225 220
186 186 183 183 191 191 195 195 192 187 192 188 183 192 199 202 187 188 189 195 197 194 190 187 187 185 184 187 193 189 187 185 186 196 205 214 211 217 224 224 224 224 228 224 232 226 226 226 232 223 216 218 222 227 228 220 213 218 211 218 222 242 238
182 175 172 176 169 169 180 179 170 186 188 190 197 199 203 207 208 194 182 186 205 203 191 180 193 188 187 189 194 190 185 177 170 173 186 199 208 208 213 219 221 219 215 222 227 236 244 247 241 241 227 224 225 230 236 232 228 198 91 349 281 234 243
173 169 162 142 139 150 161 164 170 174 179 187 192 197 194 197 200 201 201 202 207 203 199 208 203 195 193 194 189 183 179 175 174 164 169 184 195 199 206 220 227 224 221 221 228 237 225 234 237 238 239 231 225 223 228 235 38 22 93 176 258 270 246
155 144 138 135 135 127 124 122 119 120 121 101 90 91 105 121 162 191 198 197 203 201 193 209 211 201 200 189 191 185 176 185 184 188 187 192 191 179 185 197 206 217 227 235 225 215 230 227 232 241 246 234 235 234 233 95 35 22 15 331 273 259 266
148 147 149 149 137 132 129 128 127 129 122 120 127 132 135 164 181 187 195 202 188 187 192 209 213 212 207 197 194 195 192 192 199 201 202 203 200 190 174 176 181 205 210 218 246 241 230 230 223 219 229 242 238 250 87 63 34 8 6 353 327 278 268
161 145 142 132 123 121 120 118 120 118 118 121 133 138 151 178 191 197 213 261 200 193 208 210 207 200 199 194 180 172 171 172 184 182 172 142 193 188 163 107 67 64 56 339 220 237 236 223 215 220 228 231 227 131 60 50 12 348 345 349 329 303 245
136 123 148 138 129 123 122 122 121 120 124 125 120 122 132 134 137 112 97 95 81 142 198 206 209 204 200 199 200 189 176 180 186 184 170 158 165 147 127 124 118 109 131 164 168 191 210 227 212 214 217 201 172 166 81 57 13 356 349 345 324 324 271
129 133 139 131 130 127 131 127 125 125 121 120 124 110 99 104 110 111 105 103 108 110 114 136 169 176 179 181 159 161 170 170 158 155 160 156 135 133 140 150 154 147 175 175 349 210 186 189 195 186 212 193 168 135 95 59 20 2 359 349 339 323 257
136 129 129 132 138 133 130 123 123 122 122 118 110 100 95 99 107 106 102 101 105 112 120 116 100 93 114 109 104 110 114 119 131 134 138 137 137 129 127 133 130 128 147 158 151 139 125 154 170 154 139 110 105 118 84 61 22 9 11 359 348 307 261
126 129 139 135 130 128 128 124 127 128 126 121 108 104 108 109 113 113 110 111 112 112 101 94 96 99 96 101 110 111 112 111 106 114 117 112 118 126 117 99 106 141 167 143 118 103 95 86 81 71 100 99 112 120 96 67 38 21 18 11 359 336 292
123 130 136 139 135 128 128 128 126 123 119 116 111 110 110 113 111 111 113 110 111 106 100 105 107 103 97 98 100 107 113 117 120 122 119 115 117 118 121 130 123 96 80 79 81 87 70 58 71 69 56 72 86 82 76 69 47 26 21 17 12 357 321
125 135 140 135 129 124 120 123 126 122 118 111 107 115 117 113 105 98 95 100 110 107 98 89 90 96 101 101 95 87 89 91 94 97 96 98 89 91 88 92 95 88 81 73 72 77 72 77 82 84 74 82 76 64 52 57 47 29 20 22 18 7 359
133 137 136 129 119 123 130 132 128 124 117 115 122 119 113 105 100 95 93 100 106 103 101 102 98 89 84 84 88 92 93 96 96 98 100 104 108 106 90 77 80 80 84 84 75 78 80 81 78 79 79 71 65 58 50 48 50 38 28 26 24 18 5
106 130 119 113 127 130 122 116 116 117 119 123 124 122 113 103 97 97 97 91 90 103 112 109 101 96 91 86 83 92 96 92 91 98 100 102 107 108 100 94 93 94 93 89 91 88 91 96 93 89 85 79 72 68 62 52 49 48 40 33 33 31 20
117 109 125 132 136 127 124 125 125 120 120 122 119 117 113 109 102 102 97 91 94 111 112 108 103 99 97 97 97 97 97 95 88 93 99 98 95 99 100 97 96 98 104 110 109 103 95 86 94 97 91 82 79 79 71 64 56 45 56 45 42 35 34
128 143 145 130 129 125 130 123 120 118 115 108 104 108 110 112 109 105 102 97 102 114 118 117 104 99 98 100 101 102 98 99 93 82 86 93 93 89 94 98 102 105 109 115 115 111 103 109 118 112 98 89 86 78 73 71 76 61 58 60 51 46 38
136 149 146 134 126 127 129 118 113 111 117 122 120 115 114 114 117 117 112 109 115 116 115 115 113 111 112 110 108 108 101 92 94 102 98 92 86 83 85 92 100 106 112 121 120 119 123 135 133 112 104 106 104 98 81 64 69 69 58 52 57 47 34
131 109 86 92 102 107 107 110 107 112 109 104 106 116 121 119 118 117 118 127 127 129 129 123 120 119 118 121 118 115 115 113 110 104 97 91 86 84 80 83 77 70 60 96 109 115 128 143 141 135 135 138 126 118 117 111 100 83 66 62 69 63 48
76 84 96 90 88 95 96 96 102 103 98 87 76 88 101 111 119 117 132 137 144 143 141 136 131 128 128 125 123 122 123 123 120 116 113 110 111 111 112 108 104 97 77 42 48 85 120 126 132 140 145 142 141 138 132 128 105 83 66 47 50 63 69
75 80 88 92 89 86 91 95 97 95 92 85 76 71 81 91 102 116 130 139 154 148 149 148 145 138 136 133 131 130 124 117 117 121 115 108 101 100 102 98 89 80 85 98 89 134 130 125 115 120 129 128 126 131 140 125 91 61 48 35 17 16 28
96 78 65 75 76 72 75 81 81 81 82 83 82 80 80 80 89 100 113 117 122 151 160 153 153 150 147 144 136 128 130 132 135 119 108 95 82 59 39 28 51 77 73 44 21 10 26 113 106 93 87 76 96 137 144 103 75 66 12 360 351 343 0
97 97 86 67 69 65 69 70 73 73 73 72 72 80 87 92 92 101 106 115 130 150 151 153 159 157 151 145 141 148 151 144 128 130 126 114 102 95 76 55 45 31 57 76 41 48 44 47 50 8 27 69 49 20 32 67 68 47 8 328 315 331 329
114 110 100 93 81 70 63 67 73 78 75 71 73 81 88 94 99 95 85 95 126 141 143 157 154 156 151 159 158 149 140 135 139 135 126 123 119 108 103 94 59 46 46 60 65 61 59 58 50 42 31 28 97 73 62 72 60 50 0 13 335 318 319
109 97 97 93 90 101 96 79 67 72 78 82 83 86 93 100 102 103 106 94 104 134 146 155 155 158 154 140 98 98 130 125 118 132 140 138 140 138 133 123 112 84 38 34 63 65 61 59 56 50 48 42 37 58 123 95 65 28 55 151 257 277 287